Weather WX

World > North America > United States > Mississippi

Little Texas, Mississippi Regional Weather

Lat: 34.63N, Lon: 90.28W
Wx Zone: MSZ007
Warning FLW WEATHER ALERT - (More Info. Click Here) Warning
Feedback

Little Texas, MS Regional Weather

Expires:201906240900;;989871
ASUS44 KJAN 240810
RWRMS 

MISSISSIPPI HOURLY WEATHER ROUNDUP
NATIONAL WEATHER SERVICE JACKSON MS
300 AM CDT MON JUN 24 2019

NOTE: "FAIR: INDICATES FEW OR NO CLOUDS BELOW 12,000 FEET WITH NO
SIGNIFICANT WEATHER AND/OR OBSTRUCTIONS TO VISIBILITY.


MSZ001>002-007>008-010>013-018>021-025>028-034>036-240900-
NORTHWEST MISSISSIPPI
  
CITY           SKY/WX    TMP DP  RH WIND       PRES   REMARKS
BATESVILLE     RAIN      68  68 100 CALM      29.82F                  
CLARKSDALE     CLOUDY    68  68 100 NW9G18    29.82F                  
CLEVELAND      LGT RAIN  67  67 100 NW18G28   29.82R                  
GREENWOOD      LGT RAIN  69  68  96 E5        29.79F FOG              
GREENVILLE       N/A    N/A N/A N/A MISG      29.83R                  
OLIVE BRANCH     N/A     66 N/A N/A CALM      29.85S                  
OXFORD         RAIN      68  68 100 SW9       29.89R                  
TUNICA         HVY RAIN  68  66  94 N7        29.83F                  
WINONA         CLOUDY    70  70 100 E3        29.81F                  
$$


SKY/WX - Weather  TMP - Temperature  DP - Dew Point  RH - Relative Humidity
WIND - Wind Direction/Speed PRES - Barometric Pressure VSB - Visibility
WCI - Wind Chill Index E13G22 Wind - East Wind 13 mph/Gusts of 22 mph